,,Stat5,,Stat1,,Stat2,,Stat3,,Stat4,,Wind1,,Wind1,
time,status,PA1M_AVG,status,PR1M_SUM,status,RH1M_AVG,status,SR1M_AVG,status,TA1M_AVG,status,W1dAve1m,status,W1sAve1m,
2002-11-26, 00:00:00,VALID,920.231,VALID,0,VALID,98.4031,VALID,0.0679233,VALID,19.1793,VALID,112,VALID,0.702714,
2002-11-26, 00:01:00,VALID,920.231,VALID,0,VALID,98.3942,VALID,0,VALID,19.1731,VALID,113,VALID,0.739926,
2002-11-26, 00:02:00,VALID,920.217,VALID,0,VALID,98.412,VALID,0,VALID,19.1701,VALID,118,VALID,0.47614,
2002-11-26, 00:03:00,VALID,920.201,VALID,0,VALID,98.4235,VALID,0.0169808,VALID,19.1662,VALID,120,VALID,0.526605,
2002-11-26, 00:04:00,VALID,920.192,VALID,0,VALID,98.412,VALID,0.0169808,VALID,19.1831,VALID,131,VALID,0.466077,
2002-11-26, 00:05:00,VALID,920.165,VALID,0,VALID,98.3828,VALID,0.0339617,VALID,19.1766,VALID,141,VALID,0.685497,
2002-11-26, 00:06:00,VALID,920.151,VALID,0,VALID,98.3357,VALID,-0.101885,VALID,19.1778,VALID,135,VALID,0.579078,
2002-11-26, 00:07:00,VALID,920.13,VALID,0,VALID,98.3281,VALID,-0.0849042,VALID,19.1778,VALID,118,VALID,0.473818,
2002-11-26, 00:08:00,VALID,920.108,VALID,0,VALID,98.2798,VALID,-0.0849042,VALID,19.1713,VALID,120,VALID,0.560268,
2002-11-26, 00:09:00,VALID,920.102,VALID,0,VALID,98.2149,VALID,-0.0849042,VALID,19.1609,VALID,126,VALID,0.706414,
2002-11-26, 00:10:00,VALID,920.073,VALID,0,VALID,98.1717,VALID,-0.0509425,VALID,19.1547,VALID,127,VALID,0.841295,
2002-11-26, 00:11:00,VALID,920.064,VALID,0,VALID,98.117,VALID,-0.0679233,VALID,19.1388,VALID,127,VALID,0.919819,
2002-11-26, 00:12:00,VALID,920.05,VALID,0,VALID,98.0928,VALID,-0.101885,VALID,19.1323,VALID,122,VALID,0.694141,
2002-11-26, 00:13:00,VALID,920.028,VALID,0,VALID,98.0852,VALID,-0.0849042,VALID,19.1264,VALID,129,VALID,0.596205,
2002-11-26, 00:14:00,VALID,920.004,VALID,0,VALID,98.0305,VALID,-0.101885,VALID,19.1261,VALID,119,VALID,0.795641,
2002-11-26, 00:15:00,VALID,919.988,VALID,0,VALID,97.9581,VALID,-0.0679233,VALID,19.1033,VALID,123,VALID,0.888616,
2002-11-26, 00:16:00,VALID,919.967,VALID,0,VALID,97.8792,VALID,-0.101885,VALID,19.1003,VALID,117,VALID,0.949119,
2002-11-26, 00:17:00,VALID,919.945,VALID,0,VALID,97.7915,VALID,-0.0849042,VALID,19.1003,VALID,103,VALID,0.818201,
2002-11-26, 00:18:00,VALID,919.93,VALID,0,VALID,97.7279,VALID,-0.0509425,VALID,19.0871,VALID,109,VALID,0.938585,
2002-11-26, 00:19:00,VALID,919.908,VALID,0,VALID,97.6859,VALID,-0.0849042,VALID,19.0772,VALID,107,VALID,0.975038,
2002-11-26, 00:20:00,VALID,919.882,VALID,0,VALID,97.6211,VALID,-0.0679233,VALID,19.0735,VALID,114,VALID,0.972957,
2002-11-26, 00:21:00,VALID,919.875,VALID,0,VALID,97.5384,VALID,0.0509425,VALID,19.0792,VALID,112,VALID,1.01719,
2002-11-26, 00:22:00,VALID,919.838,VALID,0,VALID,97.5155,VALID,0.0169808,VALID,19.0792,VALID,115,VALID,1.2462,
2002-11-26, 00:23:00,VALID,919.822,VALID,0,VALID,97.4418,VALID,0.0169808,VALID,19.0827,VALID,109,VALID,1.06786,
2002-11-26, 00:24:00,VALID,919.801,VALID,0,VALID,97.4189,VALID,0.0169808,VALID,19.0792,VALID,103,VALID,0.961554,
2002-11-26, 00:25:00,VALID,919.797,VALID,0,VALID,97.3566,VALID,0,VALID,19.0829,VALID,111,VALID,0.601563,
2002-11-26, 00:26:00,VALID,919.796,VALID,0,VALID,97.2917,VALID,0,VALID,19.0762,VALID,112,VALID,0.902961,
2002-11-26, 00:27:00,VALID,919.778,VALID,0,VALID,97.2816,VALID,0,VALID,19.073,VALID,113,VALID,0.721628,
2002-11-26, 00:28:00,VALID,919.767,VALID,0,VALID,97.2371,VALID,0.0169808,VALID,19.0732,VALID,123,VALID,0.647786,
2002-11-26, 00:29:00,VALID,919.75,VALID,0,VALID,97.246,VALID,0.0169808,VALID,19.0732,VALID,115,VALID,0.70421,
2002-11-26, 00:30:00,VALID,919.727,VALID,0,VALID,97.2625,VALID,0,VALID,19.07,VALID,124,VALID,0.228966,
2002-11-26, 00:31:00,VALID,919.719,VALID,0,VALID,97.3146,VALID,0.0509425,VALID,19.0668,VALID,133,VALID,0.44436,
2002-11-26, 00:32:00,VALID,919.714,VALID,0,VALID,97.3528,VALID,0.0169808,VALID,19.0571,VALID,126,VALID,0.346495,
2002-11-26, 00:33:00,VALID,919.703,VALID,0,VALID,97.4113,VALID,-0.0169808,VALID,19.0665,VALID,125,VALID,0.18236,
2002-11-26, 00:34:00,VALID,919.698,VALID,0,VALID,97.4469,VALID,0.0679233,VALID,19.0665,VALID,123,VALID,0.180743,
2002-11-26, 00:35:00,VALID,919.705,VALID,0,VALID,97.452,VALID,0.0509425,VALID,19.0601,VALID,125,VALID,0.313453,
2002-11-26, 00:36:00,VALID,919.701,VALID,0,VALID,97.4189,VALID,0.0169808,VALID,19.067,VALID,113,VALID,0.348758,
2002-11-26, 00:37:00,VALID,919.711,VALID,0,VALID,97.4392,VALID,0,VALID,19.0643,VALID,113,VALID,0.395693,
2002-11-26, 00:38:00,VALID,919.706,VALID,0,VALID,97.4723,VALID,0.0339617,VALID,19.0536,VALID,118,VALID,0.514992,
2002-11-26, 00:39:00,VALID,919.69,VALID,0,VALID,97.5041,VALID,0.0169808,VALID,19.0504,VALID,88,VALID,0.202734,
2002-11-26, 00:40:00,VALID,919.683,VALID,0,VALID,97.4939,VALID,0.0169808,VALID,19.0509,VALID,90,VALID,0.0514323,
2002-11-26, 00:41:00,VALID,919.67,VALID,0,VALID,97.5321,VALID,0.0339617,VALID,19.0474,VALID,111,VALID,0.388091,
2002-11-26, 00:42:00,VALID,919.661,VALID,0,VALID,97.6134,VALID,0.0339617,VALID,19.0407,VALID,122,VALID,0.740748,
2002-11-26, 00:43:00,VALID,919.627,VALID,0,VALID,97.6465,VALID,0,VALID,19.0506,VALID,91,VALID,0.558929,
2002-11-26, 00:44:00,VALID,919.603,VALID,0,VALID,97.5995,VALID,0.0339617,VALID,19.0506,VALID,100,VALID,0.752323,
2002-11-26, 00:45:00,VALID,919.579,VALID,0,VALID,97.6185,VALID,0.0169808,VALID,19.0409,VALID,100,VALID,0.937911,
2002-11-26, 00:46:00,VALID,919.561,VALID,0,VALID,97.6351,VALID,0,VALID,19.0442,VALID,78,VALID,0.774554,
2002-11-26, 00:47:00,VALID,919.538,VALID,0,VALID,97.6274,VALID,0,VALID,19.0315,VALID,99,VALID,1.08033,
2002-11-26, 00:48:00,VALID,919.526,VALID,0,VALID,97.6313,VALID,0.0169808,VALID,19.0213,VALID,80,VALID,1.15603,
2002-11-26, 00:49:00,VALID,919.5,VALID,0,VALID,97.5829,VALID,0.0339617,VALID,18.9885,VALID,74,VALID,0.982936,
2002-11-26, 00:50:00,VALID,919.485,VALID,0,VALID,97.5384,VALID,0.0339617,VALID,18.9729,VALID,74,VALID,1.05695,
2002-11-26, 00:51:00,VALID,919.477,VALID,0,VALID,97.6185,VALID,0.0169808,VALID,18.9502,VALID,70,VALID,0.941723,
2002-11-26, 00:52:00,VALID,919.465,VALID,0,VALID,97.691,VALID,0.0169808,VALID,18.9279,VALID,78,VALID,0.958203,
2002-11-26, 00:53:00,VALID,919.463,VALID,0,VALID,97.7724,VALID,0.0339617,VALID,18.9083,VALID,82,VALID,1.09515,
2002-11-26, 00:54:00,VALID,919.437,VALID,0,VALID,97.8792,VALID,0,VALID,18.8824,VALID,90,VALID,1.04006,
2002-11-26, 00:55:00,VALID,919.436,VALID,0,VALID,97.9746,VALID,0.0509425,VALID,18.869,VALID,97,VALID,1.05215,
2002-11-26, 00:56:00,VALID,919.43,VALID,0,VALID,98.0738,VALID,0,VALID,18.8566,VALID,120,VALID,0.722756,
2002-11-26, 00:57:00,VALID,919.415,VALID,0,VALID,98.2009,VALID,0,VALID,18.8633,VALID,125,VALID,0.805377,
2002-11-26, 00:58:00,VALID,919.409,VALID,0,VALID,98.2569,VALID,0,VALID,18.8598,VALID,121,VALID,0.476953,
2002-11-26, 00:59:00,VALID,919.409,VALID,0,VALID,98.3294,VALID,0.0169808,VALID,18.8635,VALID,136,VALID,0.856291,
2002-11-26, 01:00:00,VALID,919.404,VALID,0,VALID,98.3802,VALID,0,VALID,18.8667,VALID,118,VALID,0.680489,
2002-11-26, 01:01:00,VALID,919.391,VALID,0,VALID,98.4336,VALID,0.0169808,VALID,18.8665,VALID,134,VALID,0.898026,
2002-11-26, 01:02:00,VALID,919.39,VALID,0,VALID,98.487,VALID,0.0339617,VALID,18.87,VALID,135,VALID,0.950586,
2002-11-26, 01:03:00,VALID,919.407,VALID,0,VALID,98.5455,VALID,0.0339617,VALID,18.8566,VALID,132,VALID,0.68457,
2002-11-26, 01:04:00,VALID,919.376,VALID,0,VALID,98.5913,VALID,0,VALID,18.837,VALID,110,VALID,0.853165,
2002-11-26, 01:05:00,VALID,919.363,VALID,0,VALID,98.5939,VALID,-0.0169808,VALID,18.8275,VALID,115,VALID,1.11102,
2002-11-26, 01:06:00,VALID,919.357,VALID,0,VALID,98.6307,VALID,-0.0849042,VALID,18.8289,VALID,110,VALID,0.836338,
2002-11-26, 01:07:00,VALID,919.352,VALID,0,VALID,98.6435,VALID,-0.0849042,VALID,18.7959,VALID,108,VALID,0.763822,
2002-11-26, 01:08:00,VALID,919.34,VALID,0,VALID,98.6549,VALID,-0.101885,VALID,18.8031,VALID,107,VALID,0.983319,
2002-11-26, 01:09:00,VALID,919.315,VALID,0,VALID,98.6549,VALID,-0.0849042,VALID,18.7999,VALID,105,VALID,1.14724,
2002-11-26, 01:10:00,VALID,919.307,VALID,0,VALID,98.6651,VALID,-0.0679233,VALID,18.7902,VALID,113,VALID,1.20161,
2002-11-26, 01:11:00,VALID,919.286,VALID,0,VALID,98.6841,VALID,-0.0679233,VALID,18.7738,VALID,110,VALID,1.18728,
2002-11-26, 01:12:00,VALID,919.268,VALID,0,VALID,98.6981,VALID,-0.0509425,VALID,18.7805,VALID,116,VALID,0.981771,
2002-11-26, 01:13:00,VALID,919.262,VALID,0,VALID,98.6829,VALID,-0.0849042,VALID,18.7807,VALID,115,VALID,0.606419,
2002-11-26, 01:14:00,VALID,919.241,VALID,0,VALID,98.6803,VALID,-0.0679233,VALID,18.7641,VALID,131,VALID,0.421274,
2002-11-26, 01:15:00,VALID,919.22,VALID,0,VALID,98.693,VALID,-0.0679233,VALID,18.7643,VALID,127,VALID,0.635485,
2002-11-26, 01:16:00,VALID,919.184,VALID,0,VALID,98.6689,VALID,-0.0679233,VALID,18.7477,VALID,126,VALID,0.708651,
2002-11-26, 01:17:00,VALID,919.16,VALID,0,VALID,98.6676,VALID,-0.0679233,VALID,18.7613,VALID,117,VALID,0.729567,
2002-11-26, 01:18:00,VALID,919.136,VALID,0,VALID,98.6524,VALID,-0.0679233,VALID,18.7611,VALID,115,VALID,1.0397,
2002-11-26, 01:19:00,VALID,919.122,VALID,0,VALID,98.6422,VALID,-0.101885,VALID,18.7544,VALID,115,VALID,0.99295,
2002-11-26, 01:20:00,VALID,919.098,VALID,0,VALID,98.6104,VALID,-0.0849042,VALID,18.7544,VALID,114,VALID,0.928486,
2002-11-26, 01:21:00,VALID,919.09,VALID,0,VALID,98.5405,VALID,0,VALID,18.75,VALID,121,VALID,0.572846,
2002-11-26, 01:22:00,VALID,919.085,VALID,0,VALID,98.5354,VALID,0,VALID,18.7371,VALID,125,VALID,0.693576,
2002-11-26, 01:23:00,VALID,919.063,VALID,0,VALID,98.5366,VALID,0.0169808,VALID,18.7472,VALID,124,VALID,0.829327,
2002-11-26, 01:24:00,VALID,919.062,VALID,0,VALID,98.4947,VALID,0,VALID,18.7408,VALID,106,VALID,0.905331,
2002-11-26, 01:25:00,VALID,919.051,VALID,0,VALID,98.4273,VALID,0,VALID,18.7375,VALID,104,VALID,0.73418,
2002-11-26, 01:26:00,VALID,919.039,VALID,0,VALID,98.3713,VALID,0,VALID,18.7182,VALID,116,VALID,0.910567,
2002-11-26, 01:27:00,VALID,919.029,VALID,0,VALID,98.3332,VALID,0,VALID,18.7149,VALID,105,VALID,0.841146,
2002-11-26, 01:28:00,VALID,919.012,VALID,0,VALID,98.2925,VALID,0.0169808,VALID,18.7115,VALID,107,VALID,0.962788,
2002-11-26, 01:29:00,VALID,918.982,VALID,0,VALID,98.2353,VALID,0,VALID,18.7154,VALID,98,VALID,0.910937,
2002-11-26, 01:30:00,VALID,918.968,VALID,0,VALID,98.2009,VALID,-0.0169808,VALID,18.7057,VALID,105,VALID,0.962788,
2002-11-26, 01:31:00,VALID,918.95,VALID,0,VALID,98.173,VALID,0,VALID,18.6955,VALID,87,VALID,0.895559,
2002-11-26, 01:32:00,VALID,918.925,VALID,0,VALID,98.0967,VALID,0,VALID,18.705,VALID,91,VALID,0.920703,
2002-11-26, 01:33:00,VALID,918.914,VALID,0,VALID,98.0191,VALID,0.0169808,VALID,18.7055,VALID,99,VALID,0.883013,
2002-11-26, 01:34:00,VALID,918.904,VALID,0,VALID,97.9708,VALID,0,VALID,18.6992,VALID,113,VALID,0.872677,
2002-11-26, 01:35:00,VALID,918.893,VALID,0,VALID,97.9314,VALID,0,VALID,18.6953,VALID,110,VALID,0.926866,
2002-11-26, 01:36:00,VALID,918.88,VALID,0,VALID,97.8614,VALID,0.0339617,VALID,18.7085,VALID,104,VALID,0.652043,
2002-11-26, 01:37:00,VALID,918.871,VALID,0,VALID,97.7966,VALID,0.0169808,VALID,18.6951,VALID,125,VALID,0.79603,
2002-11-26, 01:38:00,VALID,918.869,VALID,0,VALID,97.7966,VALID,-0.0169808,VALID,18.6926,VALID,138,VALID,0.938133,
2002-11-26, 01:39:00,VALID,918.857,VALID,0,VALID,97.7838,VALID,0.0169808,VALID,18.7156,VALID,131,VALID,0.380335,
2002-11-26, 01:40:00,VALID,918.847,VALID,0,VALID,97.7215,VALID,0,VALID,18.705,VALID,111,VALID,0.561655,
2002-11-26, 01:41:00,VALID,918.819,VALID,0,VALID,97.6389,VALID,0,VALID,18.7085,VALID,108,VALID,0.978711,
2002-11-26, 01:42:00,VALID,918.806,VALID,0,VALID,97.5918,VALID,0,VALID,18.6988,VALID,114,VALID,1.13141,
2002-11-26, 01:43:00,VALID,918.791,VALID,0,VALID,97.5677,VALID,0,VALID,18.6859,VALID,99,VALID,1.08418,
2002-11-26, 01:44:00,VALID,918.774,VALID,0,VALID,97.5956,VALID,0,VALID,18.6826,VALID,69,VALID,0.471217,
2002-11-26, 01:45:00,VALID,918.757,VALID,0,VALID,97.5677,VALID,0.0169808,VALID,18.6796,VALID,95,VALID,0.598479,
2002-11-26, 01:46:00,VALID,918.74,VALID,0,VALID,97.5511,VALID,0,VALID,18.657,VALID,84,VALID,0.620777,
2002-11-26, 01:47:00,VALID,918.717,VALID,0,VALID,97.555,VALID,0,VALID,18.6471,VALID,104,VALID,0.551562,
2002-11-26, 01:48:00,VALID,918.71,VALID,0,VALID,97.5041,VALID,0,VALID,18.6372,VALID,119,VALID,0.960286,
2002-11-26, 01:49:00,VALID,918.683,VALID,0,VALID,97.485,VALID,0,VALID,18.6339,VALID,128,VALID,0.735853,
2002-11-26, 01:50:00,VALID,918.673,VALID,0,VALID,97.4151,VALID,0,VALID,18.6183,VALID,111,VALID,0.687911,
2002-11-26, 01:51:00,VALID,918.669,VALID,0,VALID,97.3553,VALID,0,VALID,18.6185,VALID,111,VALID,0.512784,
2002-11-26, 01:52:00,VALID,918.674,VALID,0,VALID,97.2968,VALID,0.0169808,VALID,18.6086,VALID,110,VALID,0.382401,
2002-11-26, 01:53:00,VALID,918.661,VALID,0,VALID,97.3146,VALID,0.0169808,VALID,18.615,VALID,113,VALID,0.0277344,
2002-11-26, 01:54:00,VALID,918.652,VALID,0,VALID,97.2905,VALID,0,VALID,18.5986,VALID,113,VALID,0.196752,
2002-11-26, 01:55:00,VALID,918.642,VALID,0,VALID,97.2765,VALID,0,VALID,18.5887,VALID,105,VALID,0.253701,
2002-11-26, 01:56:00,VALID,918.635,VALID,0,VALID,97.232,VALID,0.0169808,VALID,18.579,VALID,98,VALID,0.348067,
2002-11-26, 01:57:00,VALID,918.632,VALID,0,VALID,97.2498,VALID,0,VALID,18.573,VALID,98,VALID,0.111779,
2002-11-26, 01:58:00,VALID,918.619,VALID,0,VALID,97.2561,VALID,0.0509425,VALID,18.5599,VALID,98,VALID,0,
2002-11-26, 01:59:00,VALID,918.618,VALID,0,VALID,97.2434,VALID,0,VALID,18.5435,VALID,98,VALID,0,
2002-11-26, 02:00:00,VALID,918.615,VALID,0,VALID,97.265,VALID,0,VALID,18.5114,VALID,98,VALID,0.116016,
2002-11-26, 02:01:00,VALID,918.6,VALID,0,VALID,97.2396,VALID,0.0169808,VALID,18.499,VALID,94,VALID,0.754991,
2002-11-26, 02:02:00,VALID,918.589,VALID,0,VALID,97.3159,VALID,-0.0169808,VALID,18.4865,VALID,92,VALID,0.968961,
2002-11-26, 02:03:00,VALID,918.58,VALID,0,VALID,97.3515,VALID,0,VALID,18.4575,VALID,92,VALID,0.653166,
2002-11-26, 02:04:00,VALID,918.563,VALID,0,VALID,97.4367,VALID,0,VALID,18.4312,VALID,93,VALID,0.483929,
2002-11-26, 02:05:00,VALID,918.551,VALID,0,VALID,97.5461,VALID,0.0169808,VALID,18.4245,VALID,107,VALID,0.343539,
2002-11-26, 02:06:00,VALID,918.553,VALID,0,VALID,97.5893,VALID,-0.0169808,VALID,18.4249,VALID,109,VALID,0.118215,
2002-11-26, 02:07:00,VALID,918.537,VALID,0,VALID,97.5779,VALID,0,VALID,18.4116,VALID,84,VALID,0.49933,
2002-11-26, 02:08:00,VALID,918.513,VALID,0,VALID,97.5855,VALID,0.0169808,VALID,18.3986,VALID,72,VALID,0.900841,
2002-11-26, 02:09:00,VALID,918.497,VALID,0,VALID,97.4812,VALID,0,VALID,18.3829,VALID,83,VALID,0.773655,
2002-11-26, 02:10:00,VALID,918.487,VALID,0,VALID,97.541,VALID,0,VALID,18.3507,VALID,87,VALID,0.90625,
2002-11-26, 02:11:00,VALID,918.482,VALID,0,VALID,97.691,VALID,0,VALID,18.3345,VALID,88,VALID,1.03146,
2002-11-26, 02:12:00,VALID,918.468,VALID,0,VALID,97.7673,VALID,0,VALID,18.3373,VALID,86,VALID,1.03505,
2002-11-26, 02:13:00,VALID,918.494,VALID,0,VALID,97.7877,VALID,0.0339617,VALID,18.3343,VALID,96,VALID,1.01211,
2002-11-26, 02:14:00,VALID,918.484,VALID,0,VALID,97.8131,VALID,0,VALID,18.337,VALID,112,VALID,1.02724,
2002-11-26, 02:15:00,VALID,918.482,VALID,0,VALID,97.8017,VALID,0.0169808,VALID,18.3569,VALID,98,VALID,0.869992,
2002-11-26, 02:16:00,VALID,918.47,VALID,0,VALID,97.6681,VALID,0.0169808,VALID,18.3534,VALID,89,VALID,0.831715,
2002-11-26, 02:17:00,VALID,918.462,VALID,0,VALID,97.574,VALID,0,VALID,18.3571,VALID,82,VALID,0.813702,
2002-11-26, 02:18:00,VALID,918.466,VALID,0,VALID,97.5003,VALID,0,VALID,18.3414,VALID,85,VALID,0.598575,
2002-11-26, 02:19:00,VALID,918.458,VALID,0,VALID,97.5194,VALID,0.0169808,VALID,18.3214,VALID,107,VALID,0.454297,
2002-11-26, 02:20:00,VALID,918.475,VALID,0,VALID,97.5766,VALID,-0.0169808,VALID,18.3186,VALID,119,VALID,0.475123,
2002-11-26, 02:21:00,VALID,918.485,VALID,0,VALID,97.6287,VALID,-0.101885,VALID,18.3334,VALID,107,VALID,0.495593,
2002-11-26, 02:22:00,VALID,918.469,VALID,0,VALID,97.6134,VALID,-0.0849042,VALID,18.3493,VALID,127,VALID,0.732113,
2002-11-26, 02:23:00,VALID,918.473,VALID,0,VALID,97.541,VALID,-0.101885,VALID,18.3516,VALID,143,VALID,0.691602,
2002-11-26, 02:24:00,VALID,918.477,VALID,0,VALID,97.4036,VALID,-0.101885,VALID,18.3488,VALID,146,VALID,0.801562,
2002-11-26, 02:25:00,VALID,918.474,VALID,0,VALID,97.4634,VALID,-0.0849042,VALID,18.3327,VALID,143,VALID,0.454527,
2002-11-26, 02:26:00,VALID,918.477,VALID,0,VALID,97.4888,VALID,-0.101885,VALID,18.3267,VALID,142,VALID,0.455387,
2002-11-26, 02:27:00,VALID,918.479,VALID,0,VALID,97.5906,VALID,-0.101885,VALID,18.3006,VALID,150,VALID,0.9373,
2002-11-26, 02:28:00,VALID,918.484,VALID,0,VALID,97.8385,VALID,-0.118866,VALID,18.3036,VALID,150,VALID,0.877604,
2002-11-26, 02:29:00,VALID,918.494,VALID,0,VALID,97.9949,VALID,-0.101885,VALID,18.304,VALID,146,VALID,0.750845,
2002-11-26, 02:30:00,VALID,918.48,VALID,0,VALID,98.1068,VALID,-0.101885,VALID,18.2812,VALID,137,VALID,0.426683,
2002-11-26, 02:31:00,VALID,918.462,VALID,0,VALID,98.1984,VALID,-0.101885,VALID,18.2651,VALID,134,VALID,0.319661,
2002-11-26, 02:32:00,VALID,918.444,VALID,0,VALID,98.3192,VALID,-0.101885,VALID,18.2455,VALID,150,VALID,0.644314,
2002-11-26, 02:33:00,VALID,918.423,VALID,0,VALID,98.4235,VALID,-0.118866,VALID,18.2392,VALID,144,VALID,0.552684,
2002-11-26, 02:34:00,VALID,918.409,VALID,0,VALID,98.4858,VALID,-0.101885,VALID,18.2166,VALID,149,VALID,0.504645,
2002-11-26, 02:35:00,VALID,918.382,VALID,0,VALID,98.5862,VALID,-0.101885,VALID,18.2101,VALID,145,VALID,0.98137,
2002-11-26, 02:36:00,VALID,918.35,VALID,0,VALID,98.7236,VALID,0,VALID,18.2088,VALID,134,VALID,0.783306,
2002-11-26, 02:37:00,VALID,918.337,VALID,0,VALID,98.7592,VALID,-0.0169808,VALID,18.1956,VALID,132,VALID,0.661966,
2002-11-26, 02:38:00,VALID,918.316,VALID,0,VALID,98.7922,VALID,0,VALID,18.176,VALID,121,VALID,0.851362,
2002-11-26, 02:39:00,VALID,918.312,VALID,0,VALID,98.8049,VALID,0,VALID,18.1733,VALID,124,VALID,0.697846,
2002-11-26, 02:40:00,VALID,918.322,VALID,0,VALID,98.8406,VALID,0,VALID,18.1571,VALID,121,VALID,0.619474,
2002-11-26, 02:41:00,VALID,918.319,VALID,0,VALID,98.8685,VALID,0.0169808,VALID,18.1599,VALID,113,VALID,0.794471,
2002-11-26, 02:42:00,VALID,918.307,VALID,0,VALID,98.9537,VALID,0,VALID,18.1832,VALID,111,VALID,1.54096,
2002-11-26, 02:43:00,VALID,918.295,VALID,0,VALID,98.9792,VALID,0,VALID,18.1993,VALID,104,VALID,1.38498,
2002-11-26, 02:44:00,VALID,918.297,VALID,0,VALID,98.913,VALID,0,VALID,18.1954,VALID,114,VALID,1.27324,
2002-11-26, 02:45:00,VALID,918.287,VALID,0,VALID,98.8596,VALID,0.0169808,VALID,18.1887,VALID,117,VALID,1.05974,
2002-11-26, 02:46:00,VALID,918.284,VALID,0,VALID,98.8049,VALID,0,VALID,18.1829,VALID,112,VALID,1.02266,
2002-11-26, 02:47:00,VALID,918.283,VALID,0,VALID,98.7617,VALID,-0.0169808,VALID,18.1702,VALID,110,VALID,0.921875,
2002-11-26, 02:48:00,VALID,918.281,VALID,0,VALID,98.7159,VALID,-0.0169808,VALID,18.164,VALID,104,VALID,0.955946,
2002-11-26, 02:49:00,VALID,918.281,VALID,0,VALID,98.6625,VALID,0,VALID,18.1608,VALID,119,VALID,1.23643,
2002-11-26, 02:50:00,VALID,918.283,VALID,0,VALID,98.6333,VALID,0,VALID,18.1511,VALID,118,VALID,1.35938,
2002-11-26, 02:51:00,VALID,918.278,VALID,0,VALID,98.5951,VALID,0.0169808,VALID,18.1472,VALID,115,VALID,1.26645,
2002-11-26, 02:52:00,VALID,918.267,VALID,0,VALID,98.5977,VALID,0,VALID,18.1474,VALID,114,VALID,1.434,
2002-11-26, 02:53:00,VALID,918.249,VALID,0,VALID,98.5977,VALID,0,VALID,18.1444,VALID,123,VALID,1.11979,
2002-11-26, 02:54:00,VALID,918.248,VALID,0,VALID,98.6295,VALID,0,VALID,18.1509,VALID,128,VALID,1.10276,
2002-11-26, 02:55:00,VALID,918.248,VALID,0,VALID,98.6307,VALID,0,VALID,18.1474,VALID,128,VALID,0.997044,
2002-11-26, 02:56:00,VALID,918.25,VALID,0,VALID,98.6854,VALID,0,VALID,18.144,VALID,131,VALID,1.18511,
2002-11-26, 02:57:00,VALID,918.236,VALID,0,VALID,98.674,VALID,0,VALID,18.1474,VALID,127,VALID,0.92528,
2002-11-26, 02:58:00,VALID,918.221,VALID,0,VALID,98.6524,VALID,0,VALID,18.1474,VALID,128,VALID,1.1003,
2002-11-26, 02:59:00,VALID,918.223,VALID,0,VALID,98.6638,VALID,0,VALID,18.1347,VALID,137,VALID,0.82538,
2002-11-26, 03:00:00,VALID,918.206,VALID,0,VALID,98.6791,VALID,0,VALID,18.1213,VALID,126,VALID,1.15587,
2002-11-26, 03:01:00,VALID,918.196,VALID,0,VALID,98.6943,VALID,0,VALID,18.1283,VALID,113,VALID,0.887247,
2002-11-26, 03:02:00,VALID,918.193,VALID,0,VALID,98.6625,VALID,-0.0169808,VALID,18.1121,VALID,109,VALID,1.04688,
2002-11-26, 03:03:00,VALID,918.192,VALID,0,VALID,98.693,VALID,0,VALID,18.096,VALID,108,VALID,1.08313,
2002-11-26, 03:04:00,VALID,918.175,VALID,0,VALID,98.707,VALID,0,VALID,18.093,VALID,110,VALID,0.848437,
2002-11-26, 03:05:00,VALID,918.162,VALID,0,VALID,98.6943,VALID,0,VALID,18.0734,VALID,125,VALID,0.941201,
2002-11-26, 03:06:00,VALID,918.152,VALID,0,VALID,98.7604,VALID,-0.0509425,VALID,18.0708,VALID,136,VALID,0.648026,
2002-11-26, 03:07:00,VALID,918.125,VALID,0,VALID,98.7795,VALID,0,VALID,18.0609,VALID,123,VALID,0.533361,
2002-11-26, 03:08:00,VALID,918.1,VALID,0,VALID,98.7757,VALID,-0.0169808,VALID,18.0381,VALID,122,VALID,0.605664,
2002-11-26, 03:09:00,VALID,918.082,VALID,0,VALID,98.796,VALID,0,VALID,18.0152,VALID,127,VALID,0.530165,
2002-11-26, 03:10:00,VALID,918.057,VALID,0,VALID,98.8851,VALID,-0.0169808,VALID,17.9926,VALID,111,VALID,0.954603,
2002-11-26, 03:11:00,VALID,918.046,VALID,0,VALID,98.9766,VALID,0,VALID,18.0025,VALID,112,VALID,1.0847,
2002-11-26, 03:12:00,VALID,918.033,VALID,0,VALID,99.0593,VALID,-0.0339617,VALID,18.012,VALID,110,VALID,0.926847,
2002-11-26, 03:13:00,VALID,918.019,VALID,0,VALID,99.1,VALID,0,VALID,18.012,VALID,104,VALID,0.956209,
2002-11-26, 03:14:00,VALID,918.011,VALID,0,VALID,99.1623,VALID,-0.0169808,VALID,18.0118,VALID,106,VALID,1.14102,
2002-11-26, 03:15:00,VALID,918.006,VALID,0,VALID,99.1966,VALID,-0.0169808,VALID,18.0217,VALID,122,VALID,1.0588,
2002-11-26, 03:16:00,VALID,917.988,VALID,0,VALID,99.1928,VALID,-0.0169808,VALID,18.0346,VALID,127,VALID,0.823396,
2002-11-26, 03:17:00,VALID,917.989,VALID,0,VALID,99.1623,VALID,0,VALID,18.0316,VALID,99,VALID,0.499178,
2002-11-26, 03:18:00,VALID,917.996,VALID,0,VALID,99.1305,VALID,-0.0169808,VALID,18.0125,VALID,106,VALID,0.423678,
2002-11-26, 03:19:00,VALID,917.999,VALID,0,VALID,99.1203,VALID,-0.0169808,VALID,18.0028,VALID,118,VALID,0.57897,
2002-11-26, 03:20:00,VALID,917.985,VALID,0,VALID,99.0949,VALID,0,VALID,17.97,VALID,96,VALID,0.856497,
2002-11-26, 03:21:00,VALID,917.984,VALID,0,VALID,99.1394,VALID,-0.0169808,VALID,17.9702,VALID,109,VALID,1.14355,
2002-11-26, 03:22:00,VALID,917.982,VALID,0,VALID,99.0796,VALID,-0.0169808,VALID,17.9802,VALID,119,VALID,0.945313,
2002-11-26, 03:23:00,VALID,917.98,VALID,0,VALID,99.0567,VALID,0.0169808,VALID,17.9799,VALID,117,VALID,1.13345,
2002-11-26, 03:24:00,VALID,917.981,VALID,0,VALID,99.0377,VALID,0,VALID,17.9698,VALID,107,VALID,1.03433,
2002-11-26, 03:25:00,VALID,917.981,VALID,0,VALID,99.0402,VALID,0,VALID,17.9832,VALID,120,VALID,0.897321,
2002-11-26, 03:26:00,VALID,917.983,VALID,0,VALID,98.9982,VALID,0.0169808,VALID,17.9956,VALID,109,VALID,0.783361,
2002-11-26, 03:27:00,VALID,917.995,VALID,0,VALID,98.927,VALID,0.0169808,VALID,18.0053,VALID,103,VALID,0.6544,
2002-11-26, 03:28:00,VALID,917.997,VALID,0,VALID,98.8723,VALID,0,VALID,17.9926,VALID,104,VALID,0.587277,
2002-11-26, 03:29:00,VALID,918.013,VALID,0,VALID,98.8011,VALID,-0.0169808,VALID,17.9829,VALID,131,VALID,0.528045,
2002-11-26, 03:30:00,VALID,918.021,VALID,0,VALID,98.8062,VALID,0,VALID,17.9735,VALID,154,VALID,0.811849,
2002-11-26, 03:31:00,VALID,918.016,VALID,0,VALID,98.8825,VALID,0.0169808,VALID,17.9668,VALID,150,VALID,1.19942,
2002-11-26, 03:32:00,VALID,918.012,VALID,0,VALID,98.9334,VALID,0.0169808,VALID,17.9862,VALID,150,VALID,0.875,
2002-11-26, 03:33:00,VALID,918,VALID,0,VALID,98.9168,VALID,0.0169808,VALID,17.9928,VALID,144,VALID,0.656672,
2002-11-26, 03:34:00,VALID,917.994,VALID,0,VALID,98.8914,VALID,0,VALID,17.9636,VALID,139,VALID,0.568359,
2002-11-26, 03:35:00,VALID,918.003,VALID,0,VALID,98.913,VALID,0,VALID,17.9412,VALID,130,VALID,0.371394,